Epoch,demod_status_bits,ebno,lock_status,signal_level,viterbi_ber
1665419373,C;S;-;-,4.3,0x00c000,-39.0,-1e-7
1665419374,C;S;V;F,12.7,0x00c000,-38.7,13.78e-2
1665419375,C;S;V;F,12.8,0x00c000,-38.8,20.23e-2
1665419376,C;S;V;F,12.6,0x00c000,-38.4,3.28e-2
1665419377,C;S;V;F,13.1,0x00c000,-38.5,0.00e-0
1665419378,,13.1,0x00c000,-38.3,
1665419379,C;S;V;F,13.2,0x00c000,-38.3,0.00e-0
1665419380,C;S;V;F,13.3,0x00c000,-38.0,0.00e-0
1665419381,C;S;V;F,13.3,0x00c000,-38.2,0.00e-0
1665419382,C;S;V;F,,0x00c000,-38.1,0.00e-0
1665419383,C;S;V;F,13.4,0x00c000,-37.9,0.00e-0
1665419384,C;S;V;F,13.5,0x00c000,,0.00e-0
1665419385,C;S;V;F,13.5,0x00c000,-38.0,0.00e-0
1665419386,C;S;V;F,13.7,0x00c000,-37.9,0.00e-0
1665419387,C;S;V;F,13.6,0x00c000,-38.0,0.00e-0
1665419388,C;S;V;F,13.5,0x00c000,-37.9,0.00e-0
1665419389,C;S;V;F,13.8,0x00c000,-37.8,0.00e-0
1665419390,C;S;V;F,13.9,0x00c000,-37.6,0.00e-0
1665419391,C;S;V;F,13.8,0x00c000,-37.7,0.00e-0
1665419392,C;S;V;F,13.8,0x00c000,-37.7,0.00e-0
1665419393,C;S;V;F,13.4,0x00c000,-37.9,
1665419394,C;S;V;F,13.1,0x00c000,-38.0,0.00e-0
1665419395,,13.5,0x00c000,-38.0,0.00e-0
1665419396,C;S;V;F,13.6,0x00c000,-38.0,0.00e-0
1665419397,C;S;V;F,13.9,0x00c000,-37.7,0.00e-0
1665419398,C;S;V;F,13.8,0x00c000,-37.4,0.00e-0
1665419399,C;S;V;F,,0x00c000,-37.2,0.00e-0
1665419400,C;S;V;F,14.3,0x00c000,,0.00e-0
1665419401,C;S;V;F,14.3,0x00c000,-37.4,0.00e-0
1665419402,C;S;V;F,14.1,0x00c000,-37.6,0.00e-0
1665419404,,13.6,0x00c000,-38.0,
1665419405,C;S;V;F,13.1,0x00c000,-38.2,0.00e-0
1665419406,C;S;V;F,,0x00c000,-38.0,0.00e-0
1665419407,C;S;V;F,13.3,0x00c000,-37.9,0.00e-0
1665419408,C;S;V;F,13.7,0x00c000,-38.4,0.00e-0
1665419409,C;S;V;F,13.5,0x00c000,,0.00e-0
1665419410,C;S;V;F,13.1,0x00c000,-38.5,0.00e-0
1665419411,C;S;V;F,13.6,0x00c000,-38.1,
1665419412,C;S;V;F,13.1,0x00c000,-38.3,0.00e-0
1665419413,,13.2,0x00c000,-38.3,0.00e-0
1665419414,C;S;V;F,13.6,0x00c000,-38.0,0.00e-0
1665419415,C;S;V;F,13.3,0x00c000,-38.2,0.00e-0
1665419416,C;S;V;F,13.2,0x00c000,-38.4,0.00e-0
1665419417,C;S;V;F,,0x00c000,-38.1,0.00e-0
1665419418,C;S;V;F,13.3,0x00c000,-38.0,0.00e-0
1665419419,C;S;V;F,13.5,0x00c000,,0.00e-0
1665419420,C;S;V;F,13.5,0x00c000,-37.9,0.00e-0
1665419421,C;S;V;F,13.5,0x00c000,-37.9,0.00e-0
1665419422,C;S;V;F,13.7,0x00c000,-38.1,0.00e-0
1665419423,C;S;V;F,13.2,0x00c000,-38.5,0.00e-0
1665419424,C;S;V;F,13.0,0x00c000,-38.7,1.51e-7
1665419425,C;S;V;F,12.7,0x00c000,-38.9,1.51e-7
